User: anonymous   Login
Location: Unspecified
(0.0000°N, 0.0000°E)
Time: 21:50:50
(UTC+00:00)
Language:

IRS-1C - Orbit

View from above orbital plane
View from above orbital plane
View from above satellite
View from above satellite

Ground track
Ground track

The orbit is defined by the following mean orbital elements,

1 23751U          26150.51113676 +.00000000 +00000-0 +71786-4 0 00008
2 23751  99.0217 169.1326 0001178  85.0832 275.0480 14.23564133    07
Epoch (UTC): 30 May 2026 12:16:02
Eccentricity: 0.0001178
inclination: 99.0217°
perigee height: 812 km
apogee height: 814 km
right ascension of ascending node: 169.1326°
argument of perigee: 85.0832°
revolutions per day: 14.23564133
mean anomaly at epoch: 275.0480°

The dashed part of the orbit path shows where the satellite is in the earth's shadow,  

DLR